Station WAHV2 - 8631044 - Wachapreague, VA Image indicating link to RSS feed of recent meteorological observations for station WAHV2


Conditions at WAHV2 as of
(7:18 am EDT)
1118 GMT on 07/16/2024:
     

Click on the graph icon in the table below to see a time series plot of the last five days of that observation.

5-day plot - Wind Direction Wind Direction (WDIR): SW ( 230 deg true )
5-day plot - Wind Speed Wind Speed (WSPD): 6.0 kts
5-day plot - Wind Gust Wind Gust (GST): 8.0 kts
5-day plot - Atmospheric Pressure Atmospheric Pressure (PRES):29.89 in
5-day plot - Air Temperature Air Temperature (ATMP): 83.1 °F
5-day plot - Water Temperature Water Temperature (WTMP): 83.5 °F
5-day plot - Wind Speed at 10 Meters Wind Speed at 10 meters (WSPD10M): 5.8 kts
5-day plot - Wind Speed at 20 Meters Wind Speed at 20 meters (WSPD20M): 7.8 kts
5-day plot -  Wind Speed, Wind Gust and Atmospheric Pressure Combined plot of Wind Speed, Gust, and Air Pressure
NOS Water Level Observation Network Water Level
Previous observations
TIME
(EDT)
5-day plot - Wind Direction
WDIR
 
5-day plot - Wind Speed
WSPD
kts
5-day plot - Wind Gust
GST
kts
5-day plot - Wave Height
WVHT
ft
5-day plot - Dominant Wave Period
DPD
sec
5-day plot - Average Wave Period
APD
sec
5-day plot - Mean Wave Direction
MWD
 
5-day plot - Atmospheric Pressure
PRES
in
5-day plot - Pressure Tendency
PTDY
in
5-day plot - Air Temperature
ATMP
°F
5-day plot - Water Temperature
WTMP
°F
5-day plot - Dew Point
DEWP
°F
5-day plot - Salinity
SAL
psu
5-day plot - Visibility
VIS
nmi
5-day plot - Tide (above MLLW)
TIDE
ft
2024-07-16 07:12 am SW 7.0 8.9----29.88- 82.8 83.3----
2024-07-16 07:06 am SW 5.1 8.0----29.88- 82.6 83.3----
2024-07-16 07:00 am SW 5.1 7.0----29.88+0.03 82.4 83.3----
2024-07-16 06:54 amWSW 4.1 6.0----29.88- 82.2 83.3----
2024-07-16 06:48 amWSW 5.1 8.0----29.88- 81.9 83.3----
2024-07-16 06:42 am SW 6.0 8.9----29.88- 81.5 83.3----
2024-07-16 06:36 am SW 5.1 8.0----29.88- 81.7 83.3----
2024-07-16 06:30 am SW 5.1 8.0----29.88- 81.5 83.3----
2024-07-16 06:24 amWSW 6.0 8.9----29.88- 81.3 83.3----
2024-07-16 06:18 am SW 5.1 8.0----29.88- 81.1 83.3----
2024-07-16 06:12 am SW 5.1 8.0----29.88- 80.8 83.3----
2024-07-16 06:06 amWSW 4.1 6.0----29.88- 81.0 83.3----
2024-07-16 06:00 am SW 5.1 7.0----29.88+0.03 81.1 83.3----
2024-07-16 05:54 amWSW 5.1 8.0----29.88- 81.3 83.3----
2024-07-16 05:48 amWSW 6.0 8.0----29.88-- 83.1----
2024-07-16 05:42 amWSW 5.1 8.0----29.88-- 83.1----
2024-07-16 05:36 amWSW 5.1 11.1----29.88-- 83.1----
2024-07-16 05:30 amWSW 5.1 8.0----29.88- 81.5 83.1----
2024-07-16 05:24 amWSW 5.1 8.0----29.88- 81.5 83.1----
2024-07-16 05:18 amWSW 5.1 8.9----29.88- 81.5 83.1----
2024-07-16 05:12 amWSW 4.1 6.0----29.88- 81.5 83.1----
2024-07-16 05:06 amWSW 5.1 8.0----29.88- 81.7 83.3----
2024-07-16 05:00 amWSW 5.1 8.0----29.87+0.02 81.9 83.3----
2024-07-16 04:54 am SW 6.0 8.0----29.87- 81.9 83.3----
2024-07-16 04:48 amWSW 6.0 8.0----29.87- 81.9 83.3----
2024-07-16 04:42 amWSW 5.1 8.9----29.87- 81.9 83.3----
2024-07-16 04:36 am SW 5.1 7.0----29.87- 82.0 83.3----
2024-07-16 04:30 amWSW 4.1 8.0----29.86- 82.2 83.5----
2024-07-16 04:24 amWSW 5.1 8.0----29.86- 82.4 83.5----
2024-07-16 04:18 amWSW 5.1 8.9----29.86- 82.4 83.5----
2024-07-16 04:12 amWSW 5.1 8.0----29.86- 82.4 83.5----
2024-07-16 04:06 amWSW 6.0 9.9----29.86- 82.4 83.7----
2024-07-16 04:00 amWSW 5.1 7.0----29.86+0.00 82.4 83.7----
2024-07-16 03:54 amWSW 5.1 7.0----29.85- 82.4 83.8----
2024-07-16 03:48 am SW 4.1 7.0----29.85-- 84.0----
2024-07-16 03:42 amWSW 5.1 7.0----29.85-- 84.2----
2024-07-16 03:36 am SW 5.1 7.0----29.86-- 84.2----
2024-07-16 03:30 amWSW 5.1 7.0----29.85- 82.8 84.4----
2024-07-16 03:24 amWSW 4.1 8.9----29.85- 82.8 84.4----
2024-07-16 03:18 amWSW 6.0 8.0----29.85- 82.9 84.6----
2024-07-16 03:12 amWSW 5.1 7.0----29.85- 82.9 84.6----
2024-07-16 03:06 amWSW 5.1 7.0----29.85- 82.9 84.7----
2024-07-16 03:00 amWSW 4.1 6.0----29.85-0.02 82.9 84.9----
2024-07-16 02:54 amWSW 5.1 8.0----29.85- 83.1 84.9----
2024-07-16 02:48 amWSW 5.1 7.0----29.85- 83.3 85.1----
2024-07-16 02:42 amWSW 4.1 7.0----29.85- 83.3 85.3----
2024-07-16 02:36 amWSW 4.1 7.0----29.85- 83.5 85.6----
2024-07-16 02:30 amWSW 5.1 8.9----29.86- 83.5 85.8----
2024-07-16 02:24 amWSW 5.1 8.9----29.86- 83.3 85.8----
2024-07-16 02:18 amWSW 7.0 8.9----29.85- 83.3 86.0----
2024-07-16 02:12 amWSW 6.0 8.9----29.85- 83.1 86.0----
2024-07-16 02:06 amWSW 5.1 9.9----29.85- 83.1 86.0----
2024-07-16 02:00 amWSW 5.1 7.0----29.85-0.03 83.1 86.0----
2024-07-16 01:54 amWSW 5.1 8.0----29.85- 83.3 86.2----
2024-07-16 01:48 amWSW 5.1 8.0----29.85-- 86.2----
2024-07-16 01:42 amWSW 5.1 8.9----29.85-- 86.2----
2024-07-16 01:36 amWSW 6.0 8.9----29.86-- 86.4----
2024-07-16 01:30 amWSW 7.0 9.9----29.86- 84.0 86.4----
2024-07-16 01:24 amWSW 6.0 11.1----29.86- 84.0 86.4----
2024-07-16 01:18 amWSW 7.0 12.0----29.86- 84.2 86.5----
2024-07-16 01:12 am SW 8.0 13.0----29.85- 84.2 86.5----
2024-07-16 01:06 am SW 8.0 12.0----29.85- 84.4 86.5----
2024-07-16 01:00 am SW 7.0 12.0----29.85-0.03 84.4 86.9----
2024-07-16 12:54 am SW 8.0 13.0----29.85- 84.4 87.3----
2024-07-16 12:48 am SW 7.0 11.1----29.86- 84.2 87.8----
2024-07-16 12:42 am SW 7.0 12.0----29.86- 84.4 88.2----
2024-07-16 12:36 am SW 7.0 11.1----29.86- 84.2 88.3----
2024-07-16 12:30 am SW 7.0 11.1----29.87- 84.2 88.5----
2024-07-16 12:24 amWSW 8.0 11.1----29.87- 84.2 88.5----
2024-07-16 12:18 am SW 6.0 8.9----29.87- 84.0 88.7----
2024-07-16 12:12 am SW 6.0 9.9----29.87- 84.2 88.7----
2024-07-16 12:06 am SW 5.1 9.9----29.87- 84.2 88.7----
2024-07-16 12:00 am SW 6.0 11.1----29.87-0.01 84.2 88.7----
2024-07-15 11:54 pm SW 7.0 9.9----29.87- 84.4 88.7----
2024-07-15 11:48 pmWSW 6.0 8.9----29.88-- 88.7----
2024-07-15 11:42 pm SW 7.0 9.9----29.88-- 88.7----
2024-07-15 11:36 pm SW 6.0 8.9----29.88-- 88.7----
2024-07-15 11:30 pmWSW 6.0 8.9----29.87- 84.6 88.7----
2024-07-15 11:24 pmWSW 5.1 8.0----29.88- 84.4 88.7----
2024-07-15 11:18 pmWSW 6.0 8.9----29.88- 84.4 88.7----
2024-07-15 11:12 pm SW 6.0 8.0----29.88- 84.2 88.7----
2024-07-15 11:06 pm SW 6.0 8.9----29.88- 84.0 88.9----
2024-07-15 11:00 pmWSW 6.0 8.9----29.88+0.01 83.5 88.9----
2024-07-15 10:54 pmWSW 5.1 7.0----29.88- 83.1 88.9----
2024-07-15 10:48 pmWSW 5.1 8.0----29.88- 83.1 88.9----
2024-07-15 10:42 pm SW 5.1 8.0----29.88- 82.9 88.9----
2024-07-15 10:36 pm SW 4.1 6.0----29.88- 83.1 88.9----
2024-07-15 10:30 pm SW 5.1 7.0----29.88- 83.3 88.9----
2024-07-15 10:24 pmWSW 4.1 5.1----29.88- 83.3 88.9----
2024-07-15 10:18 pm SW 2.9 6.0----29.88- 83.5 88.9----
2024-07-15 10:12 pm SW 2.9 6.0----29.88- 83.7 88.9----
2024-07-15 10:06 pm SW 5.1 7.0----29.88- 83.3 88.9----
2024-07-15 10:00 pm SW 5.1 7.0----29.88+0.00 83.3 88.9----
2024-07-15 09:54 pm SW 5.1 8.9----29.88- 83.5 88.9----
2024-07-15 09:48 pm SW 4.1 7.0----29.88- 83.1 88.9----
2024-07-15 09:42 pmWSW 4.1 8.0----29.88- 83.1 88.9----
2024-07-15 09:36 pmWSW 5.1 8.0----29.88- 83.3 88.9----
2024-07-15 09:30 pm SW 5.1 8.9----29.88- 83.8 88.9----
2024-07-15 09:24 pm SW 7.0 11.1----29.88- 84.0 88.9----
2024-07-15 09:18 pmSSW 8.0 12.0----29.88- 84.0 88.9----
2024-07-15 09:12 pmSSW 8.9 11.1----29.88- 84.2 88.9----
2024-07-15 09:06 pm SW 7.0 11.1----29.88- 84.0 88.9----
2024-07-15 09:00 pmSSW 8.0 11.1----29.89+0.02 84.2 88.9----
2024-07-15 08:54 pm SW 7.0 11.1----29.89- 84.2 89.1----
2024-07-15 08:48 pm SW 6.0 8.9----29.89- 83.8 89.1----
2024-07-15 08:42 pm SW 6.0 8.9----29.89- 83.8 89.1----
2024-07-15 08:36 pm SW 8.0 11.1----29.88- 83.8 88.9----
2024-07-15 08:30 pm SW 6.0 12.0----29.88- 84.0 88.9----
2024-07-15 08:24 pm SW 8.9 12.0----29.88- 84.0 88.9----
2024-07-15 08:18 pmSSW 8.0 9.9----29.88- 84.6 88.7----
2024-07-15 08:12 pmSSW 9.9 12.0----29.88- 84.9 88.5----
2024-07-15 08:06 pmSSW 8.0 8.9----29.87- 85.6 88.5----
2024-07-15 08:00 pmSSW 6.0 8.0----29.87-0.01- 88.5----
2024-07-15 07:54 pm SW 6.0 8.9----29.87-- 88.5----
2024-07-15 07:48 pm SW 5.1 8.0----29.87-------
2024-07-15 07:42 pm SW 8.0 11.1----29.87-------
2024-07-15 07:36 pm SW 5.1 7.0----29.87-------
2024-07-15 07:30 pmWSW 4.1 7.0----29.87-------
2024-07-15 07:24 pmWSW 4.1 8.0----29.87-------
2024-07-15 07:18 pmWSW 6.0 11.1----29.88- 87.8 88.2----
2024-07-15 07:12 pm SW 6.0 12.0----29.88- 87.8 88.2----
2024-07-15 07:00 pm SW 8.0 11.1----29.88-0.01 87.8 88.5----
2024-07-15 06:54 pm SW 8.9 13.0----29.88- 88.0 88.5----
2024-07-15 06:48 pmSSW 8.0 11.1----29.88-- 88.3----
2024-07-15 06:42 pm SW 8.9 14.0----29.87-- 88.5----
2024-07-15 06:36 pm SW 8.9 13.0----29.88-- 88.5----
2024-07-15 06:30 pm SW 7.0 12.0----29.87- 90.7-----
2024-07-15 06:24 pmWSW 6.0 12.0----29.87- 91.2-----
2024-07-15 06:18 pm-------29.87- 90.7 86.9----
2024-07-15 06:12 pm-------29.87- 90.3 86.9----
2024-07-15 06:06 pm-------29.87- 89.8 86.9----
2024-07-15 06:00 pmSSW 11.1 15.0----29.87-0.04 90.0 86.9----
2024-07-15 05:54 pmSSW 13.0 15.9----29.87- 89.4 86.4----
2024-07-15 05:48 pmSSW 11.1 15.0------ 89.4 85.8----
2024-07-15 05:42 pmSSW 11.1 14.0------ 89.8 85.6----
2024-07-15 05:36 pmSSW 11.1 14.0------ 89.6 86.0----
2024-07-15 05:30 pmSSW 9.9 13.0----29.88- 90.0 86.0----
2024-07-15 05:24 pmSSW 9.9 13.0----29.88- 90.1 85.8----
2024-07-15 05:18 pmSSW 11.1 13.0----29.87- 89.8 85.5----
2024-07-15 05:12 pm SW 8.9 12.0----29.87- 91.8 85.3----
2024-07-15 05:06 pmSSW 8.9 13.0----29.88- 91.0 85.8----
2024-07-15 05:00 pmSSW 7.0 9.9----29.88-0.05- 86.0----
2024-07-15 04:54 pm SW 5.1 8.0----29.88-- 85.8----
2024-07-15 04:48 pmWSW 4.1 7.0----29.88- 94.5 85.8----
2024-07-15 04:42 pm SW 6.0 8.0----29.88- 94.5 85.8----
2024-07-15 04:36 pm SW 4.1 7.0----29.88- 94.3 85.8----
2024-07-15 04:30 pm W 4.1 8.9----29.88- 94.1 85.8----
2024-07-15 04:24 pmWSW 5.1 8.0----29.88- 94.1 85.8----
2024-07-15 04:18 pm W 5.1 8.9----29.89- 93.4 86.0----
2024-07-15 04:12 pm W 5.1 8.9----29.89- 93.9 86.2----
2024-07-15 04:06 pmWSW 5.1 8.9----29.89- 94.3 86.2----
2024-07-15 04:00 pm W 4.1 7.0----29.89-0.05 95.0 86.2----
2024-07-15 03:54 pm W 1.9 5.1----29.89- 96.1 86.2----
2024-07-15 03:48 pm W 5.1 8.0----29.89-- 86.2----
2024-07-15 03:42 pmNNW 1.9 5.1----29.89-- 86.2----
2024-07-15 03:36 pmWNW 1.9 5.1----29.90-- 86.2----
2024-07-15 03:30 pm W 4.1 8.9----29.90- 93.9 86.2----
2024-07-15 03:24 pmWNW 4.1 8.0----29.90- 94.5 86.2----
2024-07-15 03:18 pmWNW 1.0 6.0----29.90- 96.4 86.2----
2024-07-15 03:12 pm NW 1.9 5.1----29.90- 95.4 86.2----
2024-07-15 03:06 pmWNW 1.9 2.9----29.91- 95.9 86.2----
2024-07-15 03:00 pmWNW 1.0 5.1----29.91-0.04 95.5 86.2----
2024-07-15 02:54 pmWNW 1.9 5.1----29.91- 93.9 86.2----
2024-07-15 02:48 pm W 1.9 7.0----29.91- 93.6 86.2----
2024-07-15 02:42 pmWSW 1.9 5.1----29.91- 94.8 86.2----
2024-07-15 02:36 pm NW 1.0 7.0----29.91- 93.9 86.2----
2024-07-15 02:30 pmWNW 1.9 7.0----29.91- 94.3 86.2----
2024-07-15 02:24 pmWNW 1.9 7.0----29.92- 94.8 86.2----
2024-07-15 02:18 pmWNW 2.9 5.1----29.92- 93.6 86.2----
2024-07-15 02:12 pmWNW 2.9 7.0----29.92- 93.0 86.0----
2024-07-15 02:06 pmWNW 1.9 8.0----29.92- 93.7 86.0----
2024-07-15 02:00 pmWNW 1.9 6.0----29.92-0.01 94.1 86.0----
2024-07-15 01:54 pm W 5.1 7.0----29.92- 92.3 86.0----
2024-07-15 01:48 pm W 1.9 5.1----29.92- 93.4 86.0----
2024-07-15 01:42 pm NW 2.9 8.9----29.93- 92.7 86.0----
2024-07-15 01:36 pmWNW 1.9 5.1----29.93- 94.6 86.0----
2024-07-15 01:30 pmWNW 4.1 8.9----29.93- 92.7 85.8----
2024-07-15 01:24 pm W 4.1 8.0----29.93- 92.1 85.8----
2024-07-15 01:18 pm W 6.0 8.0----29.93- 90.5 85.8----
2024-07-15 01:12 pmWNW 2.9 9.9----29.94- 91.9 85.6----
2024-07-15 01:06 pm W 5.1 8.9----29.94- 90.7 85.5----
2024-07-15 01:00 pm NW 2.9 8.0----29.94+0.01 92.1 85.5----
2024-07-15 12:54 pm NW 2.9 8.9----29.94- 91.8 85.3----
2024-07-15 12:48 pmWNW 1.9 8.9----29.94- 92.7 85.3----
2024-07-15 12:42 pmWNW 1.9 7.0----29.94- 92.5 85.1----
2024-07-15 12:36 pmWNW 2.9 7.0----29.94- 92.3 85.1----
2024-07-15 12:30 pmWNW 2.9 7.0----29.94- 91.6 85.1----
2024-07-15 12:24 pmNNW 4.1 8.0----29.94- 91.6 85.1----
2024-07-15 12:18 pmWNW 2.9 8.0----29.94- 91.0 85.1----
2024-07-15 12:12 pm NW 1.9 7.0----29.94- 91.4 85.1----
2024-07-15 12:06 pmWNW 1.9 7.0----29.94- 91.0 85.1----
2024-07-15 12:00 pmWNW 4.1 8.0----29.94+0.00 90.0 85.1----
2024-07-15 11:54 amWNW 2.9 7.0----29.94- 89.6 85.1----
2024-07-15 11:48 am NW 2.9 8.9----29.94- 89.8 85.1----
2024-07-15 11:42 am W 5.1 9.9----29.94- 87.8 85.1----
2024-07-15 11:36 am W 5.1 11.1----29.94- 87.6 84.9----
2024-07-15 11:30 am W 4.1 9.9----29.94- 88.0 84.9----
2024-07-15 11:24 am W 7.0 12.0----29.94- 86.5 84.7----
2024-07-15 11:18 am W 5.1 9.9----29.94- 86.9 84.7----
2024-07-15 11:12 am W 7.0 12.0----29.94- 86.5 84.7----
2024-07-15 11:06 am W 8.0 13.0----29.94- 86.4 84.7----
2024-07-15 11:00 am W 4.1 9.9----29.93-0.01 87.6 84.6----
2024-07-15 10:54 am W 7.0 11.1----29.94- 86.4 84.6----
2024-07-15 10:48 am W 7.0 13.0----29.93- 86.5 84.6----
2024-07-15 10:42 am W 5.1 8.9----29.93- 86.0 84.6----
2024-07-15 10:36 am W 5.1 9.9----29.94- 86.0 84.7----
2024-07-15 10:30 am W 6.0 8.9----29.94- 86.4 84.7----
2024-07-15 10:24 amWNW 4.1 8.0----29.94- 86.0 84.6----
2024-07-15 10:18 amWNW 4.1 8.9----29.93- 86.4 84.7----
2024-07-15 10:12 amWNW 4.1 11.1----29.93- 86.0 84.7----
2024-07-15 10:06 amWNW 2.9 8.9----29.93- 86.0 84.6----
2024-07-15 10:00 am W 5.1 8.9----29.93+0.00 85.5 84.7----
2024-07-15 09:54 am W 6.0 9.9----29.93- 85.5 84.7----
2024-07-15 09:48 am W 5.1 8.9----29.93- 86.0 84.6----
2024-07-15 09:42 am W 5.1 9.9----29.94- 85.8 84.6----
2024-07-15 09:36 am W 5.1 9.9----29.94- 85.3 84.6----
2024-07-15 09:30 am W 6.0 11.1----29.94- 85.1 84.6----
2024-07-15 09:24 am W 6.0 12.0----29.94- 85.1 84.6----
2024-07-15 09:18 am W 4.1 8.9----29.95- 85.5 84.6----
2024-07-15 09:12 am W 4.1 7.0----29.94- 85.6 84.6----
2024-07-15 09:06 am W 2.9 8.9----29.94- 85.3 84.6----
2024-07-15 09:00 am W 5.1 8.9----29.95+0.01 84.6 84.6----
2024-07-15 08:54 am W 5.1 8.9----29.95- 84.2 84.4----
2024-07-15 08:48 am W 5.1 8.9----29.95- 84.0 84.4----
2024-07-15 08:42 am W 4.1 11.1----29.95- 84.4 84.4----
2024-07-15 08:36 am W 5.1 9.9----29.95- 84.2 84.4----
2024-07-15 08:30 am W 7.0 9.9----29.95- 83.8 84.4----
2024-07-15 08:24 am W 5.1 11.1----29.95- 84.0 84.4----
2024-07-15 08:18 am W 5.1 8.9----29.95- 83.7 84.4----
2024-07-15 08:12 am W 7.0 9.9----29.95- 83.1 84.4----
2024-07-15 08:06 am W 5.1 8.0----29.95- 83.3 84.4----
2024-07-15 08:00 am W 5.1 8.0----29.95+0.02 82.9 84.4----
2024-07-15 07:54 amWSW 5.1 8.0----29.95- 82.8 84.4----